Time,TemperatureF,DewpointF,PressureIn,WindDirection,WindDirectionDegrees,WindSpeedMPH,WindSpeedGustMPH,Humidity,HourlyPrecipIn,Conditions,Clouds,dailyrainin,SolarRadiationWatts/m^2,SoftwareType,DateUTC
2013-04-28 00:02:00,52.6,36.5,30.79,South,182,2.0,6.0,54,0.00,,,0.00,0.00,VWS V14.00,2013-04-28 06:02:00,
2013-04-28 00:07:00,52.7,35.6,30.79,SSW,203,1.0,7.0,52,0.00,,,0.00,0.00,VWS V14.00,2013-04-28 06:07:00,
2013-04-28 00:12:00,52.9,36.2,30.79,South,169,4.0,10.0,53,0.00,,,0.00,0.00,VWS V14.00,2013-04-28 06:12:00,
2013-04-28 00:17:00,53.1,36.4,30.79,South,174,4.0,12.0,53,0.00,,,0.00,0.00,VWS V14.00,2013-04-28 06:17:00,
2013-04-28 00:22:00,53.2,36.5,30.79,SSE,165,5.0,10.0,53,0.00,,,0.00,0.00,VWS V14.00,2013-04-28 06:22:00,
2013-04-28 00:27:00,53.2,36.5,30.79,SSW,192,6.0,11.0,53,0.00,,,0.00,0.00,VWS V14.00,2013-04-28 06:27:00,
2013-04-28 00:32:00,53.2,35.6,30.79,West,276,3.0,12.0,51,0.00,,,0.00,0.00,VWS V14.00,2013-04-28 06:32:00,
2013-04-28 00:37:00,53.2,36.0,30.79,West,281,6.0,7.0,52,0.00,,,0.00,0.00,VWS V14.00,2013-04-28 06:37:00,
2013-04-28 00:42:00,53.2,35.6,30.79,South,172,6.0,10.0,51,0.00,,,0.00,0.00,VWS V14.00,2013-04-28 06:42:00,
2013-04-28 00:47:00,53.1,36.0,30.79,SE,134,10.0,13.0,52,0.00,,,0.00,0.00,VWS V14.00,2013-04-28 06:47:00,
2013-04-28 00:52:00,53.0,36.3,30.79,South,189,3.0,7.0,53,0.00,,,0.00,0.00,VWS V14.00,2013-04-28 06:52:00,
2013-04-28 00:57:00,52.9,36.2,30.80,SSW,192,5.0,7.0,53,0.00,,,0.00,0.00,VWS V14.00,2013-04-28 06:57:00,
2013-04-28 01:02:00,52.8,36.6,30.79,South,186,5.0,14.0,54,0.00,,,0.00,0.00,VWS V14.00,2013-04-28 07:02:00,
2013-04-28 01:07:00,52.7,36.5,30.78,SSW,194,5.0,10.0,54,0.00,,,0.00,0.00,VWS V14.00,2013-04-28 07:07:00,
2013-04-28 01:12:00,52.5,36.3,30.78,SSW,196,10.0,16.0,54,0.00,,,0.00,0.00,VWS V14.00,2013-04-28 07:12:00,
2013-04-28 01:17:00,52.3,36.2,30.78,South,187,3.0,16.0,54,0.00,,,0.00,0.00,VWS V14.00,2013-04-28 07:17:00,
2013-04-28 01:22:00,52.1,36.0,30.78,SSE,160,7.0,7.0,54,0.00,,,0.00,0.00,VWS V14.00,2013-04-28 07:22:00,
2013-04-28 01:27:00,52.0,35.9,30.77,SSE,158,11.0,13.0,54,0.00,,,0.00,0.00,VWS V14.00,2013-04-28 07:27:00,
2013-04-28 01:32:00,51.7,36.5,30.77,SSE,161,10.0,13.0,56,0.00,,,0.00,0.00,VWS V14.00,2013-04-28 07:32:00,
2013-04-28 01:37:00,51.4,36.2,30.76,SSE,152,8.0,14.0,56,0.00,,,0.00,0.00,VWS V14.00,2013-04-28 07:37:00,
2013-04-28 01:42:00,51.1,36.0,30.77,SSE,153,8.0,14.0,56,0.00,,,0.00,0.00,VWS V14.00,2013-04-28 07:42:00,
2013-04-28 01:47:00,50.9,35.3,30.77,South,181,7.0,14.0,55,0.00,,,0.00,0.00,VWS V14.00,2013-04-28 07:47:00,
2013-04-28 01:52:00,50.8,35.7,30.77,South,175,8.0,13.0,56,0.00,,,0.00,0.00,VWS V14.00,2013-04-28 07:52:00,
2013-04-28 01:57:00,50.8,35.2,30.77,South,184,5.0,13.0,55,0.00,,,0.00,0.00,VWS V14.00,2013-04-28 07:57:00,
2013-04-28 02:02:00,50.7,35.1,30.78,South,175,5.0,13.0,55,0.00,,,0.00,0.00,VWS V14.00,2013-04-28 08:02:00,
2013-04-28 02:07:00,50.7,35.1,30.77,SSW,207,3.0,9.0,55,0.00,,,0.00,0.00,VWS V14.00,2013-04-28 08:07:00,
2013-04-28 02:12:00,50.7,35.1,30.77,SSE,155,11.0,11.0,55,0.00,,,0.00,0.00,VWS V14.00,2013-04-28 08:12:00,
2013-04-28 02:17:00,51.0,35.0,30.77,South,175,5.0,13.0,54,0.00,,,0.00,0.00,VWS V14.00,2013-04-28 08:17:00,
2013-04-28 02:22:00,51.2,35.1,30.77,SSE,149,9.0,12.0,54,0.00,,,0.00,0.00,VWS V14.00,2013-04-28 08:22:00,
2013-04-28 02:27:00,51.3,35.2,30.77,SSE,161,5.0,14.0,54,0.00,,,0.00,0.00,VWS V14.00,2013-04-28 08:27:00,
2013-04-28 02:32:00,51.2,35.1,30.77,SSE,164,11.0,14.0,54,0.00,,,0.00,0.00,VWS V14.00,2013-04-28 08:32:00,
2013-04-28 02:37:00,51.2,35.6,30.77,SSE,163,10.0,13.0,55,0.00,,,0.00,0.00,VWS V14.00,2013-04-28 08:37:00,
2013-04-28 02:42:00,51.1,35.5,30.77,SSE,154,10.0,13.0,55,0.00,,,0.00,0.00,VWS V14.00,2013-04-28 08:42:00,
2013-04-28 02:47:00,51.0,35.4,30.77,SSE,150,10.0,16.0,55,0.00,,,0.00,0.00,VWS V14.00,2013-04-28 08:47:00,
2013-04-28 02:52:00,50.8,35.7,30.77,SSE,154,10.0,15.0,56,0.00,,,0.00,0.00,VWS V14.00,2013-04-28 08:52:00,
2013-04-28 02:57:00,50.8,35.7,30.77,SSE,155,11.0,15.0,56,0.00,,,0.00,0.00,VWS V14.00,2013-04-28 08:57:00,
2013-04-28 03:02:00,50.7,35.6,30.76,SE,127,5.0,15.0,56,0.00,,,0.00,0.00,VWS V14.00,2013-04-28 09:02:00,
2013-04-28 03:07:00,50.6,35.5,30.77,SE,141,5.0,11.0,56,0.00,,,0.00,0.00,VWS V14.00,2013-04-28 09:07:00,
2013-04-28 03:12:00,50.5,35.4,30.78,SE,132,6.0,11.0,56,0.00,,,0.00,0.00,VWS V14.00,2013-04-28 09:12:00,
2013-04-28 03:17:00,50.5,35.4,30.78,SSE,157,8.0,11.0,56,0.00,,,0.00,0.00,VWS V14.00,2013-04-28 09:17:00,
2013-04-28 03:22:00,50.5,35.4,30.78,SSE,160,6.0,6.0,56,0.00,,,0.00,0.00,VWS V14.00,2013-04-28 09:22:00,
2013-04-28 03:27:00,50.5,35.4,30.78,SSE,155,6.0,9.0,56,0.00,,,0.00,0.00,VWS V14.00,2013-04-28 09:27:00,
2013-04-28 03:32:00,50.5,35.4,30.78,SSE,160,4.0,9.0,56,0.00,,,0.00,0.00,VWS V14.00,2013-04-28 09:32:00,
2013-04-28 03:37:00,50.5,35.4,30.78,SSE,165,6.0,7.0,56,0.00,,,0.00,0.00,VWS V14.00,2013-04-28 09:37:00,
2013-04-28 03:42:00,50.6,35.5,30.77,SSE,161,1.0,9.0,56,0.00,,,0.00,0.00,VWS V14.00,2013-04-28 09:42:00,
2013-04-28 03:47:00,50.6,35.5,30.77,SSE,163,3.0,9.0,56,0.00,,,0.00,0.00,VWS V14.00,2013-04-28 09:47:00,
2013-04-28 03:52:00,50.6,35.5,30.78,SSE,163,0.0,3.0,56,0.00,,,0.00,0.00,VWS V14.00,2013-04-28 09:52:00,
2013-04-28 03:57:00,50.6,35.5,30.78,SSE,163,2.0,3.0,56,0.00,,,0.00,0.00,VWS V14.00,2013-04-28 09:57:00,
2013-04-28 04:02:00,50.5,35.4,30.77,SSE,163,0.0,4.0,56,0.00,,,0.00,0.00,VWS V14.00,2013-04-28 10:02:00,
2013-04-28 04:07:00,50.5,35.4,30.77,SSE,163,0.0,0.0,56,0.00,,,0.00,0.00,VWS V14.00,2013-04-28 10:07:00,
2013-04-28 04:12:00,50.5,35.0,30.78,SSE,163,0.0,1.0,55,0.00,,,0.00,0.00,VWS V14.00,2013-04-28 10:12:00,
2013-04-28 04:17:00,50.5,35.0,30.77,SSE,163,0.0,1.0,55,0.00,,,0.00,0.00,VWS V14.00,2013-04-28 10:17:00,
2013-04-28 04:22:00,50.5,35.4,30.77,SSE,163,0.0,2.0,56,0.00,,,0.00,0.00,VWS V14.00,2013-04-28 10:22:00,
2013-04-28 04:27:00,50.4,35.3,30.77,SSE,163,0.0,2.0,56,0.00,,,0.00,0.00,VWS V14.00,2013-04-28 10:27:00,
2013-04-28 04:32:00,50.4,35.3,30.78,SSE,163,0.0,4.0,56,0.00,,,0.00,0.00,VWS V14.00,2013-04-28 10:32:00,
2013-04-28 04:37:00,50.3,35.2,30.78,SSE,163,0.0,1.0,56,0.00,,,0.00,0.00,VWS V14.00,2013-04-28 10:37:00,
2013-04-28 04:42:00,50.3,34.8,30.77,SSE,163,2.0,3.0,55,0.00,,,0.00,0.00,VWS V14.00,2013-04-28 10:42:00,
2013-04-28 04:47:00,50.3,34.8,30.77,SSE,163,1.0,3.0,55,0.00,,,0.00,0.00,VWS V14.00,2013-04-28 10:47:00,
2013-04-28 04:52:00,50.4,34.9,30.77,SSE,163,0.0,0.0,55,0.00,,,0.00,0.00,VWS V14.00,2013-04-28 10:52:00,
2013-04-28 04:57:00,50.5,35.0,30.76,SSE,163,0.0,2.0,55,0.00,,,0.00,0.00,VWS V14.00,2013-04-28 10:57:00,
2013-04-28 05:02:00,50.4,35.3,30.77,SSE,163,2.0,2.0,56,0.00,,,0.00,0.00,VWS V14.00,2013-04-28 11:02:00,
2013-04-28 05:07:00,50.3,35.2,30.78,SSE,163,0.0,0.0,56,0.00,,,0.00,0.00,VWS V14.00,2013-04-28 11:07:00,
2013-04-28 05:12:00,50.2,35.1,30.77,SSE,163,0.0,1.0,56,0.00,,,0.00,0.00,VWS V14.00,2013-04-28 11:12:00,
2013-04-28 05:17:00,50.1,35.5,30.77,SSE,163,0.0,1.0,57,0.00,,,0.00,0.00,VWS V14.00,2013-04-28 11:17:00,
2013-04-28 05:22:00,49.8,35.6,30.77,SSE,163,0.0,1.0,58,0.00,,,0.00,0.00,VWS V14.00,2013-04-28 11:22:00,
2013-04-28 05:27:00,49.6,35.5,30.77,SSE,163,3.0,5.0,58,0.00,,,0.00,0.00,VWS V14.00,2013-04-28 11:27:00,
2013-04-28 05:32:00,49.4,35.7,30.77,SSE,163,3.0,5.0,59,0.00,,,0.00,0.00,VWS V14.00,2013-04-28 11:32:00,
2013-04-28 05:37:00,49.3,35.2,30.77,SSE,163,0.0,1.0,58,0.00,,,0.00,0.00,VWS V14.00,2013-04-28 11:37:00,
2013-04-28 05:42:00,49.3,35.6,30.77,SSE,163,0.0,2.0,59,0.00,,,0.00,0.00,VWS V14.00,2013-04-28 11:42:00,
2013-04-28 05:47:00,49.2,35.5,30.78,SSE,163,0.0,2.0,59,0.00,,,0.00,0.00,VWS V14.00,2013-04-28 11:47:00,
2013-04-28 05:52:00,49.1,35.8,30.77,SSE,163,0.0,1.0,60,0.00,,,0.00,0.00,VWS V14.00,2013-04-28 11:52:00,
2013-04-28 05:57:00,49.0,35.7,30.78,SSE,163,1.0,3.0,60,0.00,,,0.00,0.00,VWS V14.00,2013-04-28 11:57:00,
2013-04-28 06:02:00,49.1,35.4,30.78,SSE,163,0.0,5.0,59,0.00,,,0.00,0.00,VWS V14.00,2013-04-28 12:02:00,
2013-04-28 06:07:00,49.1,35.8,30.78,SSE,163,0.0,0.0,60,0.00,,,0.00,0.00,VWS V14.00,2013-04-28 12:07:00,
2013-04-28 06:12:00,49.0,35.7,30.78,SSE,163,5.0,7.0,60,0.00,,,0.00,0.00,VWS V14.00,2013-04-28 12:12:00,
2013-04-28 06:17:00,49.2,34.6,30.78,South,169,4.0,7.0,57,0.00,,,0.00,0.00,VWS V14.00,2013-04-28 12:17:00,
2013-04-28 06:22:00,49.4,35.3,30.79,SSE,155,4.0,5.0,58,0.00,,,0.00,0.00,VWS V14.00,2013-04-28 12:22:00,
2013-04-28 06:27:00,49.6,35.0,30.77,SE,133,1.0,5.0,57,0.00,,,0.00,0.00,VWS V14.00,2013-04-28 12:27:00,
2013-04-28 06:32:00,49.6,35.0,30.78,SE,134,0.0,5.0,57,0.00,,,0.00,0.00,VWS V14.00,2013-04-28 12:32:00,
2013-04-28 06:37:00,49.7,35.1,30.78,SE,134,0.0,0.0,57,0.00,,,0.00,0.00,VWS V14.00,2013-04-28 12:37:00,
2013-04-28 06:42:00,49.6,35.0,30.77,SE,133,0.0,1.0,57,0.00,,,0.00,7.00,VWS V14.00,2013-04-28 12:42:00,
2013-04-28 06:47:00,49.6,34.6,30.78,South,184,4.0,5.0,56,0.00,,,0.00,9.00,VWS V14.00,2013-04-28 12:47:00,
2013-04-28 06:52:00,49.7,34.7,30.78,SSE,165,2.0,3.0,56,0.00,,,0.00,12.00,VWS V14.00,2013-04-28 12:52:00,
2013-04-28 06:57:00,49.9,33.9,30.78,SSE,165,0.0,4.0,54,0.00,,,0.00,12.00,VWS V14.00,2013-04-28 12:57:00,
2013-04-28 07:02:00,50.1,34.6,30.78,SSE,165,1.0,4.0,55,0.00,,,0.00,16.00,VWS V14.00,2013-04-28 13:02:00,
2013-04-28 07:07:00,50.3,34.8,30.80,SSE,166,0.0,4.0,55,0.00,,,0.00,14.00,VWS V14.00,2013-04-28 13:07:00,
2013-04-28 07:12:00,50.3,34.8,30.81,West,271,0.0,5.0,55,0.00,,,0.00,16.00,VWS V14.00,2013-04-28 13:12:00,
2013-04-28 07:17:00,50.1,35.0,30.81,West,270,0.0,5.0,56,0.00,,,0.00,23.00,VWS V14.00,2013-04-28 13:17:00,
2013-04-28 07:22:00,50.0,34.5,30.81,West,271,0.0,2.0,55,0.00,,,0.00,25.00,VWS V14.00,2013-04-28 13:22:00,
2013-04-28 07:27:00,49.9,33.5,30.81,WNW,284,0.0,6.0,53,0.00,,,0.00,21.00,VWS V14.00,2013-04-28 13:27:00,
2013-04-28 07:33:00,50.0,34.9,30.81,West,259,1.0,6.0,56,0.00,,,0.00,21.00,VWS V14.00,2013-04-28 13:33:00,
2013-04-28 07:38:00,50.1,35.0,30.81,West,259,0.0,0.0,56,0.00,,,0.00,23.00,VWS V14.00,2013-04-28 13:38:00,
2013-04-28 07:43:00,50.2,35.6,30.81,SSW,206,2.0,4.0,57,0.00,,,0.00,53.00,VWS V14.00,2013-04-28 13:43:00,
2013-04-28 07:48:00,50.2,36.4,30.81,SSW,207,2.0,4.0,59,0.00,,,0.00,60.00,VWS V14.00,2013-04-28 13:48:00,
2013-04-28 07:53:00,50.2,36.0,30.81,SSW,206,2.0,3.0,58,0.00,,,0.00,42.00,VWS V14.00,2013-04-28 13:53:00,
2013-04-28 07:58:00,50.3,36.1,30.81,SSW,205,0.0,4.0,58,0.00,,,0.00,46.00,VWS V14.00,2013-04-28 13:58:00,
2013-04-28 08:03:00,50.3,36.1,30.81,SSW,205,1.0,4.0,58,0.00,,,0.00,49.00,VWS V14.00,2013-04-28 14:03:00,
2013-04-28 08:08:00,50.3,36.1,30.82,NW,322,5.0,5.0,58,0.00,,,0.00,91.00,VWS V14.00,2013-04-28 14:08:00,
2013-04-28 08:13:00,50.4,35.3,30.82,North,360,2.0,7.0,56,0.00,,,0.00,316.00,VWS V14.00,2013-04-28 14:13:00,
2013-04-28 08:18:00,50.7,36.9,30.82,North,360,3.0,7.0,59,0.00,,,0.00,336.00,VWS V14.00,2013-04-28 14:18:00,
2013-04-28 08:23:00,51.0,36.8,30.82,WSW,257,2.0,3.0,58,0.00,,,0.00,93.00,VWS V14.00,2013-04-28 14:23:00,
2013-04-28 08:28:00,51.3,36.2,30.82,WSW,258,2.0,3.0,56,0.00,,,0.00,91.00,VWS V14.00,2013-04-28 14:28:00,
2013-04-28 08:33:00,51.5,36.3,30.81,WSW,257,1.0,3.0,56,0.00,,,0.00,95.00,VWS V14.00,2013-04-28 14:33:00,
2013-04-28 08:38:00,51.6,36.0,30.81,WSW,258,0.0,0.0,55,0.00,,,0.00,65.00,VWS V14.00,2013-04-28 14:38:00,
2013-04-28 08:43:00,51.7,36.1,30.81,WSW,257,0.0,1.0,55,0.00,,,0.00,371.00,VWS V14.00,2013-04-28 14:43:00,
2013-04-28 08:48:00,51.8,36.2,30.82,WSW,258,0.0,3.0,55,0.00,,,0.00,262.00,VWS V14.00,2013-04-28 14:48:00,
2013-04-28 08:53:00,52.1,35.5,30.82,WSW,258,1.0,3.0,53,0.00,,,0.00,67.00,VWS V14.00,2013-04-28 14:53:00,
2013-04-28 08:58:00,52.2,35.1,30.82,WSW,258,3.0,4.0,52,0.00,,,0.00,118.00,VWS V14.00,2013-04-28 14:58:00,
2013-04-28 09:03:00,52.3,36.2,30.81,NW,318,6.0,6.0,54,0.00,,,0.00,127.00,VWS V14.00,2013-04-28 15:03:00,
2013-04-28 09:08:00,52.4,36.3,30.82,North,355,9.0,9.0,54,0.00,,,0.00,121.00,VWS V14.00,2013-04-28 15:08:00,
2013-04-28 09:13:00,52.2,37.9,30.82,NNE,19,0.0,9.0,58,0.00,,,0.00,102.00,VWS V14.00,2013-04-28 15:13:00,
2013-04-28 09:18:00,52.1,37.3,30.82,NNE,18,0.0,9.0,57,0.00,,,0.00,125.00,VWS V14.00,2013-04-28 15:18:00,
2013-04-28 09:23:00,52.1,37.3,30.82,NNE,18,0.0,1.0,57,0.00,,,0.00,158.00,VWS V14.00,2013-04-28 15:23:00,
2013-04-28 09:28:00,52.1,36.9,30.82,NNE,19,0.0,1.0,56,0.00,,,0.00,160.00,VWS V14.00,2013-04-28 15:28:00,
2013-04-28 09:33:00,52.2,36.5,30.82,NNE,19,0.0,1.0,55,0.00,,,0.00,121.00,VWS V14.00,2013-04-28 15:33:00,
2013-04-28 09:38:00,52.4,36.7,30.82,NNE,18,2.0,2.0,55,0.00,,,0.00,206.00,VWS V14.00,2013-04-28 15:38:00,
2013-04-28 09:43:00,52.7,37.9,30.82,NNW,344,3.0,5.0,57,0.00,,,0.00,209.00,VWS V14.00,2013-04-28 15:43:00,
2013-04-28 09:48:00,52.8,38.0,30.82,North,350,1.0,6.0,57,0.00,,,0.00,197.00,VWS V14.00,2013-04-28 15:48:00,
2013-04-28 09:53:00,52.8,37.1,30.82,North,349,0.0,2.0,55,0.00,,,0.00,200.00,VWS V14.00,2013-04-28 15:53:00,
2013-04-28 09:58:00,52.9,36.2,30.82,North,350,0.0,2.0,53,0.00,,,0.00,125.00,VWS V14.00,2013-04-28 15:58:00,
2013-04-28 10:03:00,52.9,36.2,30.83,North,350,0.0,3.0,53,0.00,,,0.00,83.00,VWS V14.00,2013-04-28 16:03:00,
2013-04-28 10:08:00,52.9,37.2,30.83,North,349,1.0,5.0,55,0.00,,,0.00,74.00,VWS V14.00,2013-04-28 16:08:00,
2013-04-28 10:13:00,52.7,38.8,30.84,WSW,257,3.0,9.0,59,0.00,,,0.00,100.00,VWS V14.00,2013-04-28 16:13:00,
2013-04-28 10:18:00,52.2,39.6,30.84,West,271,1.0,9.0,62,0.01,,,0.01,132.00,VWS V14.00,2013-04-28 16:18:00,
2013-04-28 10:23:00,51.8,39.6,30.84,West,271,2.0,4.0,63,0.01,,,0.01,135.00,VWS V14.00,2013-04-28 16:23:00,
2013-04-28 10:28:00,51.4,40.4,30.85,West,272,1.0,4.0,66,0.01,,,0.01,745.00,VWS V14.00,2013-04-28 16:28:00,
2013-04-28 10:33:00,51.7,38.7,30.84,West,272,0.0,4.0,61,0.01,,,0.01,842.00,VWS V14.00,2013-04-28 16:33:00,
2013-04-28 10:38:00,53.0,40.8,30.83,West,272,0.0,3.0,63,0.01,,,0.01,833.00,VWS V14.00,2013-04-28 16:38:00,
2013-04-28 10:43:00,54.4,40.4,30.83,West,272,3.0,5.0,59,0.01,,,0.01,863.00,VWS V14.00,2013-04-28 16:43:00,
2013-04-28 10:48:00,55.5,41.9,30.82,West,272,4.0,6.0,60,0.01,,,0.01,886.00,VWS V14.00,2013-04-28 16:48:00,
2013-04-28 10:53:00,56.5,38.1,30.82,West,259,1.0,7.0,50,0.01,,,0.01,856.00,VWS V14.00,2013-04-28 16:53:00,
2013-04-28 10:58:00,57.0,36.4,30.81,SSW,198,3.0,7.0,46,0.01,,,0.01,475.00,VWS V14.00,2013-04-28 16:58:00,
2013-04-28 11:03:00,57.1,37.1,30.81,SSW,195,0.0,7.0,47,0.01,,,0.01,295.00,VWS V14.00,2013-04-28 17:03:00,
2013-04-28 11:08:00,56.8,35.7,30.81,South,172,0.0,3.0,45,0.01,,,0.01,297.00,VWS V14.00,2013-04-28 17:08:00,
2013-04-28 11:13:00,56.6,36.6,30.81,South,172,0.0,4.0,47,0.01,,,0.01,322.00,VWS V14.00,2013-04-28 17:13:00,
2013-04-28 11:18:00,56.4,36.4,30.82,West,267,4.0,9.0,47,0.01,,,0.01,304.00,VWS V14.00,2013-04-28 17:18:00,
2013-04-28 11:23:00,56.2,36.8,30.82,West,280,6.0,10.0,48,0.00,,,0.01,288.00,VWS V14.00,2013-04-28 17:23:00,
2013-04-28 11:28:00,55.1,37.8,30.82,NW,311,12.0,16.0,52,0.00,,,0.01,276.00,VWS V14.00,2013-04-28 17:28:00,
2013-04-28 11:33:00,54.1,37.4,30.83,NW,311,13.0,16.0,53,0.00,,,0.01,318.00,VWS V14.00,2013-04-28 17:33:00,
2013-04-28 11:38:00,53.6,37.4,30.83,NW,310,12.0,16.0,54,0.00,,,0.01,431.00,VWS V14.00,2013-04-28 17:38:00,
2013-04-28 11:43:00,53.9,37.7,30.83,West,278,13.0,16.0,54,0.00,,,0.01,434.00,VWS V14.00,2013-04-28 17:43:00,
2013-04-28 11:48:00,54.2,37.5,30.83,WNW,296,13.0,18.0,53,0.00,,,0.01,383.00,VWS V14.00,2013-04-28 17:48:00,
2013-04-28 11:53:00,54.5,37.2,30.83,West,263,16.0,18.0,52,0.00,,,0.01,441.00,VWS V14.00,2013-04-28 17:53:00,
2013-04-28 11:58:00,54.7,35.9,30.82,West,271,12.0,21.0,49,0.00,,,0.01,334.00,VWS V14.00,2013-04-28 17:58:00,
2013-04-28 12:03:00,54.5,36.3,30.83,West,271,11.0,21.0,50,0.00,,,0.01,327.00,VWS V14.00,2013-04-28 18:03:00,
2013-04-28 12:08:00,54.1,35.9,30.84,West,265,9.0,15.0,50,0.00,,,0.01,269.00,VWS V14.00,2013-04-28 18:08:00,
2013-04-28 12:13:00,54.0,36.3,30.84,SW,229,6.0,15.0,51,0.00,,,0.01,367.00,VWS V14.00,2013-04-28 18:13:00,
2013-04-28 12:18:00,54.2,36.5,30.84,West,263,2.0,15.0,51,0.00,,,0.01,288.00,VWS V14.00,2013-04-28 18:18:00,
2013-04-28 12:23:00,54.9,35.6,30.84,SW,226,7.0,16.0,48,0.00,,,0.01,984.00,VWS V14.00,2013-04-28 18:23:00,
2013-04-28 12:28:00,56.2,38.8,30.83,WNW,290,12.0,16.0,52,0.00,,,0.01,1035.00,VWS V14.00,2013-04-28 18:28:00,
2013-04-28 12:33:00,56.8,35.1,30.83,WSW,253,6.0,16.0,44,0.00,,,0.01,360.00,VWS V14.00,2013-04-28 18:33:00,
2013-04-28 12:38:00,56.9,35.8,30.83,West,265,7.0,7.0,45,0.00,,,0.01,418.00,VWS V14.00,2013-04-28 18:38:00,
2013-04-28 12:43:00,57.7,35.4,30.82,SW,234,16.0,21.0,43,0.00,,,0.01,1250.00,VWS V14.00,2013-04-28 18:43:00,
2013-04-28 12:48:00,57.6,35.9,30.83,West,263,11.0,24.0,44,0.00,,,0.01,485.00,VWS V14.00,2013-04-28 18:48:00,
2013-04-28 12:53:00,57.1,36.0,30.83,West,265,12.0,16.0,45,0.00,,,0.01,552.00,VWS V14.00,2013-04-28 18:53:00,
2013-04-28 12:58:00,57.0,37.0,30.82,West,275,9.0,16.0,47,0.00,,,0.01,564.00,VWS V14.00,2013-04-28 18:58:00,
2013-04-28 13:03:00,57.1,36.0,30.82,West,269,12.0,16.0,45,0.00,,,0.01,401.00,VWS V14.00,2013-04-28 19:03:00,
2013-04-28 13:08:00,57.1,36.0,30.83,WSW,249,6.0,12.0,45,0.00,,,0.01,334.00,VWS V14.00,2013-04-28 19:08:00,
2013-04-28 13:13:00,57.3,36.7,30.83,WSW,249,3.0,12.0,46,0.00,,,0.01,1025.00,VWS V14.00,2013-04-28 19:13:00,
2013-04-28 13:18:00,58.2,36.4,30.82,SSE,159,4.0,12.0,44,0.00,,,0.01,1002.00,VWS V14.00,2013-04-28 19:18:00,
2013-04-28 13:23:00,58.5,35.5,30.81,South,169,4.0,6.0,42,0.00,,,0.01,336.00,VWS V14.00,2013-04-28 19:23:00,
2013-04-28 13:28:00,58.2,35.2,30.82,South,172,4.0,6.0,42,0.00,,,0.01,287.00,VWS V14.00,2013-04-28 19:28:00,
2013-04-28 13:33:00,57.9,33.8,30.82,West,272,0.0,7.0,40,0.00,,,0.01,287.00,VWS V14.00,2013-04-28 19:33:00,
2013-04-28 13:38:00,57.7,34.2,30.82,SSW,207,2.0,9.0,41,0.00,,,0.01,403.00,VWS V14.00,2013-04-28 19:38:00,
2013-04-28 13:43:00,58.6,35.6,30.81,WSW,241,3.0,9.0,42,0.00,,,0.01,461.00,VWS V14.00,2013-04-28 19:43:00,
2013-04-28 13:48:00,59.5,34.5,30.81,WNW,290,5.0,11.0,39,0.00,,,0.01,970.00,VWS V14.00,2013-04-28 19:48:00,
2013-04-28 13:53:00,59.8,34.8,30.80,NW,309,6.0,12.0,39,0.00,,,0.01,1181.00,VWS V14.00,2013-04-28 19:53:00,
2013-04-28 13:58:00,59.7,36.6,30.80,NW,313,5.0,12.0,42,0.00,,,0.01,264.00,VWS V14.00,2013-04-28 19:58:00,
2013-04-28 14:03:00,59.5,36.4,30.79,NNW,335,8.0,12.0,42,0.00,,,0.01,1121.00,VWS V14.00,2013-04-28 20:03:00,
2013-04-28 14:08:00,59.0,34.7,30.79,North,355,7.0,11.0,40,0.00,,,0.01,438.00,VWS V14.00,2013-04-28 20:08:00,
2013-04-28 14:13:00,58.6,34.4,30.79,North,360,5.0,11.0,40,0.00,,,0.01,401.00,VWS V14.00,2013-04-28 20:13:00,
2013-04-28 14:18:00,58.2,35.2,30.80,NW,317,9.0,11.0,42,0.00,,,0.01,323.00,VWS V14.00,2013-04-28 20:18:00,
2013-04-28 14:23:00,57.6,34.7,30.80,NNW,341,6.0,11.0,42,0.00,,,0.01,329.00,VWS V14.00,2013-04-28 20:23:00,
2013-04-28 14:28:00,57.3,34.4,30.80,NW,313,5.0,11.0,42,0.00,,,0.01,404.00,VWS V14.00,2013-04-28 20:28:00,
2013-04-28 14:33:00,57.2,34.9,30.80,NW,326,4.0,11.0,43,0.00,,,0.01,272.00,VWS V14.00,2013-04-28 20:33:00,
2013-04-28 14:38:00,56.9,35.2,30.80,West,273,7.0,11.0,44,0.00,,,0.01,216.00,VWS V14.00,2013-04-28 20:38:00,
2013-04-28 14:43:00,56.8,36.3,30.81,West,261,0.0,11.0,46,0.00,,,0.01,322.00,VWS V14.00,2013-04-28 20:43:00,
2013-04-28 14:48:00,56.4,38.5,30.82,West,263,9.0,22.0,51,0.00,,,0.01,826.00,VWS V14.00,2013-04-28 20:48:00,
2013-04-28 14:53:00,56.4,35.9,30.81,WSW,258,4.0,14.0,46,0.00,,,0.01,563.00,VWS V14.00,2013-04-28 20:53:00,
2013-04-28 14:58:00,57.5,36.9,30.80,West,261,11.0,14.0,46,0.00,,,0.01,1048.00,VWS V14.00,2013-04-28 20:58:00,
2013-04-28 15:03:00,58.4,34.8,30.80,West,273,6.0,14.0,41,0.00,,,0.01,1016.00,VWS V14.00,2013-04-28 21:03:00,
2013-04-28 15:08:00,58.9,34.6,30.79,SSW,199,4.0,9.0,40,0.00,,,0.01,679.00,VWS V14.00,2013-04-28 21:08:00,
2013-04-28 15:13:00,59.6,35.3,30.78,SSW,195,3.0,16.0,40,0.00,,,0.01,824.00,VWS V14.00,2013-04-28 21:13:00,
2013-04-28 15:18:00,59.9,34.2,30.78,WNW,282,11.0,16.0,38,0.00,,,0.01,501.00,VWS V14.00,2013-04-28 21:18:00,
2013-04-28 15:23:00,59.8,34.8,30.78,West,268,9.0,12.0,39,0.00,,,0.01,573.00,VWS V14.00,2013-04-28 21:23:00,
2013-04-28 15:28:00,59.7,34.7,30.78,WSW,257,3.0,18.0,39,0.00,,,0.01,323.00,VWS V14.00,2013-04-28 21:28:00,
2013-04-28 15:33:00,59.0,34.7,30.79,WNW,290,12.0,18.0,40,0.00,,,0.01,227.00,VWS V14.00,2013-04-28 21:33:00,
2013-04-28 15:38:00,57.6,36.4,30.80,West,277,19.0,29.0,45,0.00,,,0.01,232.00,VWS V14.00,2013-04-28 21:38:00,
2013-04-28 15:43:00,55.8,35.9,30.81,WSW,242,13.0,29.0,47,0.00,,,0.01,411.00,VWS V14.00,2013-04-28 21:43:00,
2013-04-28 15:48:00,55.3,36.0,30.81,SW,222,4.0,29.0,48,0.00,,,0.01,336.00,VWS V14.00,2013-04-28 21:48:00,
2013-04-28 15:53:00,55.3,36.0,30.80,West,261,4.0,12.0,48,0.00,,,0.01,436.00,VWS V14.00,2013-04-28 21:53:00,
2013-04-28 15:58:00,55.9,37.0,30.80,West,281,10.0,12.0,49,0.00,,,0.01,777.00,VWS V14.00,2013-04-28 21:58:00,
2013-04-28 16:03:00,56.7,36.7,30.79,WNW,291,0.0,12.0,47,0.00,,,0.01,724.00,VWS V14.00,2013-04-28 22:03:00,
2013-04-28 16:08:00,57.6,36.4,30.79,WSW,257,6.0,10.0,45,0.00,,,0.01,707.00,VWS V14.00,2013-04-28 22:08:00,
2013-04-28 16:13:00,58.3,35.9,30.79,WSW,253,3.0,11.0,43,0.00,,,0.01,696.00,VWS V14.00,2013-04-28 22:13:00,
2013-04-28 16:18:00,59.0,35.3,30.78,South,191,3.0,11.0,41,0.00,,,0.01,689.00,VWS V14.00,2013-04-28 22:18:00,
2013-04-28 16:23:00,59.6,35.9,30.77,SW,224,2.0,10.0,41,0.00,,,0.01,677.00,VWS V14.00,2013-04-28 22:23:00,
2013-04-28 16:28:00,60.1,33.1,30.76,West,276,9.0,13.0,36,0.00,,,0.01,663.00,VWS V14.00,2013-04-28 22:28:00,
2013-04-28 16:33:00,60.1,36.3,30.76,West,278,14.0,24.0,41,0.00,,,0.01,654.00,VWS V14.00,2013-04-28 22:33:00,
2013-04-28 16:38:00,60.1,33.1,30.76,WSW,248,9.0,15.0,36,0.00,,,0.01,645.00,VWS V14.00,2013-04-28 22:38:00,
2013-04-28 16:43:00,60.1,33.8,30.76,WNW,285,12.0,18.0,37,0.00,,,0.01,636.00,VWS V14.00,2013-04-28 22:43:00,
2013-04-28 16:48:00,60.0,33.0,30.75,WSW,241,7.0,18.0,36,0.00,,,0.01,608.00,VWS V14.00,2013-04-28 22:48:00,
2013-04-28 16:53:00,60.3,33.9,30.75,WNW,289,8.0,11.0,37,0.00,,,0.01,508.00,VWS V14.00,2013-04-28 22:53:00,
2013-04-28 16:58:00,60.2,32.5,30.75,WNW,283,6.0,12.0,35,0.00,,,0.01,563.00,VWS V14.00,2013-04-28 22:58:00,
2013-04-28 17:03:00,60.2,32.5,30.75,WNW,295,9.0,15.0,35,0.00,,,0.01,596.00,VWS V14.00,2013-04-28 23:03:00,
2013-04-28 17:08:00,60.2,32.5,30.75,WNW,292,9.0,14.0,35,0.00,,,0.01,575.00,VWS V14.00,2013-04-28 23:08:00,
2013-04-28 17:13:00,60.2,31.8,30.75,WSW,253,4.0,14.0,34,0.00,,,0.01,455.00,VWS V14.00,2013-04-28 23:13:00,
2013-04-28 17:18:00,60.4,31.9,30.75,WNW,287,10.0,14.0,34,0.00,,,0.01,566.00,VWS V14.00,2013-04-28 23:18:00,
2013-04-28 17:23:00,60.1,33.1,30.74,WNW,296,6.0,15.0,36,0.00,,,0.01,577.00,VWS V14.00,2013-04-28 23:23:00,
2013-04-28 17:28:00,60.1,31.7,30.75,NW,317,6.0,15.0,34,0.00,,,0.01,476.00,VWS V14.00,2013-04-28 23:28:00,
2013-04-28 17:33:00,59.6,32.6,30.75,West,263,4.0,15.0,36,0.00,,,0.01,482.00,VWS V14.00,2013-04-28 23:33:00,
2013-04-28 17:38:00,59.5,31.1,30.75,WNW,294,3.0,11.0,34,0.00,,,0.01,239.00,VWS V14.00,2013-04-28 23:38:00,
2013-04-28 17:43:00,59.3,33.0,30.75,West,271,2.0,12.0,37,0.00,,,0.01,517.00,VWS V14.00,2013-04-28 23:43:00,
2013-04-28 17:48:00,59.1,30.8,30.74,West,272,1.0,12.0,34,0.00,,,0.01,113.00,VWS V14.00,2013-04-28 23:48:00,
2013-04-28 17:53:00,59.0,32.8,30.74,West,261,9.0,11.0,37,0.00,,,0.01,211.00,VWS V14.00,2013-04-28 23:53:00,
2013-04-28 17:58:00,58.6,31.8,30.74,SW,219,10.0,12.0,36,0.00,,,0.01,499.00,VWS V14.00,2013-04-28 23:58:00,
2013-04-28 18:03:00,58.8,30.5,30.74,West,265,2.0,12.0,34,0.00,,,0.01,158.00,VWS V14.00,2013-04-29 00:03:00,
2013-04-28 18:08:00,58.5,31.0,30.74,South,171,0.0,5.0,35,0.00,,,0.01,160.00,VWS V14.00,2013-04-29 00:08:00,
2013-04-28 18:13:00,58.4,31.6,30.74,West,271,1.0,5.0,36,0.00,,,0.01,278.00,VWS V14.00,2013-04-29 00:13:00,
2013-04-28 18:18:00,58.5,31.0,30.74,WNW,285,7.0,10.0,35,0.00,,,0.01,338.00,VWS V14.00,2013-04-29 00:18:00,
2013-04-28 18:23:00,58.9,30.6,30.73,West,280,7.0,11.0,34,0.00,,,0.01,390.00,VWS V14.00,2013-04-29 00:23:00,
2013-04-28 18:28:00,59.0,30.7,30.73,West,273,1.0,14.0,34,0.00,,,0.01,158.00,VWS V14.00,2013-04-29 00:28:00,
2013-04-28 18:33:00,59.0,30.0,30.73,WNW,287,10.0,16.0,33,0.00,,,0.01,265.00,VWS V14.00,2013-04-29 00:33:00,
2013-04-28 18:38:00,58.8,31.9,30.73,WNW,286,9.0,10.0,36,0.00,,,0.01,185.00,VWS V14.00,2013-04-29 00:38:00,
2013-04-28 18:43:00,58.5,31.7,30.73,West,272,4.0,10.0,36,0.00,,,0.01,174.00,VWS V14.00,2013-04-29 00:43:00,
2013-04-28 18:48:00,58.3,30.1,30.73,West,267,0.0,10.0,34,0.00,,,0.01,128.00,VWS V14.00,2013-04-29 00:48:00,
2013-04-28 18:53:00,58.2,31.4,30.73,WNW,299,5.0,6.0,36,0.00,,,0.01,125.00,VWS V14.00,2013-04-29 00:53:00,
2013-04-28 18:58:00,58.0,30.5,30.73,NW,318,3.0,7.0,35,0.00,,,0.01,214.00,VWS V14.00,2013-04-29 00:58:00,
2013-04-28 19:03:00,57.9,30.4,30.73,West,276,14.0,14.0,35,0.00,,,0.01,223.00,VWS V14.00,2013-04-29 01:03:00,
2013-04-28 19:08:00,57.8,29.6,30.73,West,273,8.0,8.0,34,0.00,,,0.01,171.00,VWS V14.00,2013-04-29 01:08:00,
2013-04-28 19:13:00,57.9,29.7,30.72,West,273,0.0,9.0,34,0.00,,,0.01,264.00,VWS V14.00,2013-04-29 01:13:00,
2013-04-28 19:18:00,58.1,29.2,30.72,South,188,0.0,9.0,33,0.00,,,0.01,188.00,VWS V14.00,2013-04-29 01:18:00,
2013-04-28 19:23:00,58.3,30.8,30.72,SSW,193,7.0,10.0,35,0.00,,,0.01,118.00,VWS V14.00,2013-04-29 01:23:00,
2013-04-28 19:28:00,58.2,30.7,30.72,SSW,195,3.0,10.0,35,0.00,,,0.01,120.00,VWS V14.00,2013-04-29 01:28:00,
2013-04-28 19:33:00,58.2,30.7,30.72,SSW,199,6.0,10.0,35,0.00,,,0.01,155.00,VWS V14.00,2013-04-29 01:33:00,
2013-04-28 19:38:00,58.0,29.8,30.72,WSW,257,8.0,9.0,34,0.00,,,0.01,114.00,VWS V14.00,2013-04-29 01:38:00,
2013-04-28 19:43:00,57.7,29.5,30.72,West,261,3.0,9.0,34,0.00,,,0.01,102.00,VWS V14.00,2013-04-29 01:43:00,
2013-04-28 19:48:00,57.5,30.1,30.72,WSW,242,2.0,9.0,35,0.00,,,0.01,104.00,VWS V14.00,2013-04-29 01:48:00,
2013-04-28 19:53:00,57.3,29.2,30.73,SSW,192,0.0,6.0,34,0.00,,,0.01,47.00,VWS V14.00,2013-04-29 01:53:00,
2013-04-28 19:58:00,56.9,28.8,30.72,South,191,1.0,6.0,34,0.00,,,0.01,35.00,VWS V14.00,2013-04-29 01:58:00,
2013-04-28 20:03:00,56.5,30.6,30.72,South,189,6.0,7.0,37,0.00,,,0.01,25.00,VWS V14.00,2013-04-29 02:03:00,
2013-04-28 20:08:00,55.9,28.0,30.71,South,181,7.0,7.0,34,0.00,,,0.01,23.00,VWS V14.00,2013-04-29 02:08:00,
2013-04-28 20:13:00,55.5,27.6,30.71,SSW,203,4.0,13.0,34,0.00,,,0.01,25.00,VWS V14.00,2013-04-29 02:13:00,
2013-04-28 20:18:00,55.3,28.8,30.71,WSW,255,10.0,13.0,36,0.00,,,0.01,23.00,VWS V14.00,2013-04-29 02:18:00,
2013-04-28 20:23:00,55.0,28.6,30.71,South,173,5.0,5.0,36,0.00,,,0.01,14.00,VWS V14.00,2013-04-29 02:23:00,
2013-04-28 20:28:00,54.8,29.0,30.71,SSW,194,4.0,8.0,37,0.00,,,0.01,9.00,VWS V14.00,2013-04-29 02:28:00,
2013-04-28 20:33:00,54.4,28.7,30.71,SSW,201,8.0,20.0,37,0.00,,,0.01,5.00,VWS V14.00,2013-04-29 02:33:00,
2013-04-28 20:38:00,54.3,27.2,30.71,South,191,4.0,15.0,35,0.00,,,0.01,0.00,VWS V14.00,2013-04-29 02:38:00,
2013-04-28 20:43:00,54.3,27.9,30.71,SSW,192,0.0,15.0,36,0.00,,,0.01,0.00,VWS V14.00,2013-04-29 02:43:00,
2013-04-28 20:48:00,54.3,27.9,30.70,South,185,4.0,15.0,36,0.00,,,0.01,0.00,VWS V14.00,2013-04-29 02:48:00,
2013-04-28 20:53:00,54.1,28.4,30.70,South,185,0.0,5.0,37,0.00,,,0.01,0.00,VWS V14.00,2013-04-29 02:53:00,
2013-04-28 20:58:00,53.9,28.2,30.70,South,185,1.0,5.0,37,0.00,,,0.01,0.00,VWS V14.00,2013-04-29 02:58:00,
2013-04-28 21:03:00,53.6,28.6,30.71,South,184,3.0,6.0,38,0.00,,,0.01,0.00,VWS V14.00,2013-04-29 03:03:00,
2013-04-28 21:08:00,53.2,28.9,30.71,South,184,0.0,1.0,39,0.00,,,0.01,0.00,VWS V14.00,2013-04-29 03:08:00,
2013-04-28 21:13:00,52.7,28.5,30.71,SSW,192,1.0,9.0,39,0.00,,,0.01,0.00,VWS V14.00,2013-04-29 03:13:00,
2013-04-28 21:18:00,52.5,28.3,30.70,SSE,167,7.0,12.0,39,0.00,,,0.01,0.00,VWS V14.00,2013-04-29 03:18:00,
2013-04-28 21:23:00,52.3,28.7,30.72,South,169,4.0,5.0,40,0.00,,,0.01,0.00,VWS V14.00,2013-04-29 03:23:00,
2013-04-28 21:28:00,52.1,27.9,30.71,SSW,202,4.0,12.0,39,0.00,,,0.01,0.00,VWS V14.00,2013-04-29 03:28:00,
2013-04-28 21:33:00,52.0,28.5,30.72,South,183,4.0,12.0,40,0.00,,,0.01,0.00,VWS V14.00,2013-04-29 03:33:00,
2013-04-28 21:38:00,51.9,28.4,30.71,SSW,193,11.0,13.0,40,0.00,,,0.01,0.00,VWS V14.00,2013-04-29 03:38:00,
2013-04-28 21:43:00,51.9,28.4,30.71,SSW,194,6.0,13.0,40,0.00,,,0.01,0.00,VWS V14.00,2013-04-29 03:43:00,
2013-04-28 21:48:00,52.1,27.9,30.71,SSW,192,6.0,14.0,39,0.00,,,0.01,0.00,VWS V14.00,2013-04-29 03:48:00,
2013-04-28 21:53:00,52.3,28.1,30.71,South,191,0.0,17.0,39,0.00,,,0.01,0.00,VWS V14.00,2013-04-29 03:53:00,
2013-04-28 21:58:00,52.5,28.9,30.70,South,186,3.0,17.0,40,0.00,,,0.01,0.00,VWS V14.00,2013-04-29 03:58:00,
2013-04-28 22:01:00,52.4,28.2,30.70,SSW,194,0.0,17.0,39,0.00,,,0.01,0.00,VWS V14.00,2013-04-29 04:01:00,
2013-04-28 22:06:00,52.4,28.8,30.69,SSW,202,5.0,10.0,40,0.00,,,0.01,0.00,VWS V14.00,2013-04-29 04:06:00,
2013-04-28 22:11:00,52.4,28.8,30.69,South,187,12.0,14.0,40,0.00,,,0.01,0.00,VWS V14.00,2013-04-29 04:11:00,
2013-04-28 22:16:00,52.3,28.7,30.69,SSW,207,6.0,15.0,40,0.00,,,0.01,0.00,VWS V14.00,2013-04-29 04:16:00,
2013-04-28 22:21:00,52.3,28.1,30.69,South,176,4.0,7.0,39,0.00,,,0.01,0.00,VWS V14.00,2013-04-29 04:21:00,
2013-04-28 22:26:00,52.5,28.9,30.68,South,186,3.0,10.0,40,0.00,,,0.01,0.00,VWS V14.00,2013-04-29 04:26:00,
2013-04-28 22:31:00,52.3,28.7,30.69,SSW,201,5.0,10.0,40,0.00,,,0.01,0.00,VWS V14.00,2013-04-29 04:31:00,
2013-04-28 22:36:00,52.2,28.6,30.69,South,189,5.0,10.0,40,0.00,,,0.01,0.00,VWS V14.00,2013-04-29 04:36:00,
2013-04-28 22:41:00,52.1,29.1,30.69,South,188,4.0,10.0,41,0.00,,,0.01,0.00,VWS V14.00,2013-04-29 04:41:00,
2013-04-28 22:46:00,51.9,29.0,30.69,South,182,4.0,11.0,41,0.00,,,0.01,0.00,VWS V14.00,2013-04-29 04:46:00,
2013-04-28 22:51:00,51.8,28.9,30.69,South,187,9.0,10.0,41,0.00,,,0.01,0.00,VWS V14.00,2013-04-29 04:51:00,
2013-04-28 22:56:00,51.9,28.4,30.68,SW,225,4.0,11.0,40,0.00,,,0.01,0.00,VWS V14.00,2013-04-29 04:56:00,
2013-04-28 23:01:00,52.1,29.1,30.68,SSE,165,3.0,11.0,41,0.00,,,0.01,0.00,VWS V14.00,2013-04-29 05:01:00,
2013-04-28 23:06:00,52.0,28.5,30.69,South,185,3.0,10.0,40,0.00,,,0.01,0.00,VWS V14.00,2013-04-29 05:06:00,
2013-04-28 23:11:00,51.8,29.5,30.69,South,184,4.0,12.0,42,0.00,,,0.01,0.00,VWS V14.00,2013-04-29 05:11:00,
2013-04-28 23:16:00,51.5,29.2,30.69,South,184,4.0,12.0,42,0.00,,,0.01,0.00,VWS V14.00,2013-04-29 05:16:00,
2013-04-28 23:21:00,51.2,28.3,30.70,SSE,163,5.0,13.0,41,0.00,,,0.01,0.00,VWS V14.00,2013-04-29 05:21:00,
2013-04-28 23:26:00,51.3,29.0,30.69,South,173,5.0,13.0,42,0.00,,,0.01,0.00,VWS V14.00,2013-04-29 05:26:00,
2013-04-28 23:31:00,51.5,29.2,30.70,SSW,193,7.0,15.0,42,0.00,,,0.01,0.00,VWS V14.00,2013-04-29 05:31:00,
2013-04-28 23:36:00,51.5,29.2,30.69,South,171,7.0,9.0,42,0.00,,,0.01,0.00,VWS V14.00,2013-04-29 05:36:00,
2013-04-28 23:41:00,51.5,29.2,30.69,SW,214,1.0,13.0,42,0.00,,,0.01,0.00,VWS V14.00,2013-04-29 05:41:00,
2013-04-28 23:46:00,51.4,29.1,30.69,SSE,156,5.0,13.0,42,0.00,,,0.01,0.00,VWS V14.00,2013-04-29 05:46:00,
2013-04-28 23:51:00,51.1,28.8,30.69,SSE,155,3.0,3.0,42,0.00,,,0.01,0.00,VWS V14.00,2013-04-29 05:51:00,
2013-04-28 23:56:00,51.0,28.1,30.70,SSW,213,3.0,11.0,41,0.00,,,0.01,0.00,VWS V14.00,2013-04-29 05:56:00,